Total_Precipitation_Accumulation
0.08 0.07 0.08 0.09 0.07 0.04 0.00 0.00 0.00 0.00 0.00 0.00 0.00 0.00 0.00 0.01 0.00 0.01 0.02 0.02 0.03 0.05 0.08 0.20 0.27 0.32 0.38 0.40 0.38 0.34 0.31 0.37 0.42 0.45 0.50 0.59 0.59 0.56 0.55 0.53 0.52 0.54 0.62 0.65 0.67 0.65 0.62 0.56 0.57
0.08 0.10 0.12 0.12 0.06 0.02 0.00 0.00 0.00 0.00 0.00 0.00 0.00 0.00 0.00 0.00 0.00 0.01 0.03 0.03 0.02 0.03 0.06 0.13 0.25 0.31 0.37 0.38 0.36 0.35 0.34 0.35 0.40 0.44 0.48 0.53 0.55 0.56 0.56 0.53 0.54 0.58 0.65 0.70 0.70 0.69 0.65 0.59 0.55
0.12 0.16 0.15 0.12 0.05 0.01 0.00 0.00 0.00 0.00 0.00 0.00 0.00 0.00 0.00 0.00 0.00 0.01 0.02 0.02 0.02 0.03 0.05 0.14 0.25 0.32 0.37 0.40 0.39 0.38 0.37 0.39 0.40 0.43 0.48 0.55 0.55 0.55 0.51 0.48 0.49 0.54 0.64 0.71 0.70 0.64 0.61 0.60 0.58
0.16 0.22 0.20 0.12 0.02 0.00 0.00 0.00 0.00 0.00 0.00 0.00 0.00 0.00 0.00 0.00 0.00 0.01 0.02 0.02 0.02 0.04 0.06 0.15 0.27 0.34 0.39 0.42 0.42 0.42 0.42 0.45 0.47 0.49 0.51 0.58 0.60 0.59 0.54 0.48 0.46 0.46 0.52 0.60 0.60 0.58 0.57 0.58 0.53
0.24 0.25 0.20 0.09 0.01 0.00 0.00 0.00 0.00 0.00 0.00 0.00 0.00 0.00 0.00 0.00 0.00 0.01 0.02 0.02 0.02 0.04 0.08 0.18 0.31 0.40 0.44 0.45 0.45 0.47 0.48 0.51 0.54 0.56 0.58 0.61 0.61 0.60 0.58 0.56 0.51 0.48 0.46 0.50 0.53 0.53 0.54 0.55 0.51
0.32 0.30 0.18 0.06 0.01 0.00 0.00 0.00 0.00 0.00 0.00 0.00 0.01 0.01 0.00 0.01 0.01 0.02 0.02 0.03 0.03 0.05 0.10 0.21 0.38 0.46 0.51 0.54 0.53 0.54 0.56 0.58 0.60 0.62 0.65 0.64 0.61 0.59 0.58 0.57 0.52 0.48 0.44 0.42 0.44 0.47 0.48 0.49 0.49
0.31 0.29 0.14 0.05 0.02 0.01 0.01 0.00 0.01 0.00 0.00 0.00 0.00 0.01 0.01 0.02 0.02 0.02 0.03 0.04 0.06 0.09 0.14 0.24 0.38 0.48 0.58 0.62 0.59 0.59 0.61 0.62 0.66 0.70 0.70 0.67 0.62 0.62 0.63 0.59 0.53 0.50 0.48 0.43 0.38 0.38 0.40 0.39 0.41
0.36 0.38 0.18 0.07 0.04 0.02 0.01 0.00 0.01 0.01 0.01 0.00 0.01 0.01 0.01 0.02 0.03 0.04 0.06 0.09 0.11 0.15 0.20 0.28 0.40 0.47 0.55 0.63 0.66 0.64 0.66 0.68 0.72 0.75 0.73 0.68 0.67 0.66 0.63 0.57 0.51 0.52 0.51 0.46 0.42 0.39 0.36 0.34 0.33
0.48 0.52 0.23 0.07 0.05 0.04 0.02 0.02 0.01 0.01 0.02 0.01 0.01 0.01 0.01 0.02 0.04 0.06 0.10 0.15 0.19 0.23 0.27 0.35 0.45 0.53 0.60 0.65 0.69 0.78 0.81 0.84 0.84 0.80 0.77 0.76 0.73 0.68 0.60 0.49 0.48 0.53 0.53 0.47 0.44 0.43 0.39 0.36 0.30
0.51 0.43 0.18 0.05 0.04 0.05 0.05 0.05 0.05 0.05 0.04 0.02 0.02 0.02 0.02 0.03 0.06 0.08 0.10 0.14 0.18 0.23 0.29 0.37 0.48 0.56 0.67 0.71 0.80 0.91 0.91 0.90 0.86 0.76 0.74 0.77 0.70 0.65 0.59 0.52 0.51 0.55 0.56 0.53 0.50 0.48 0.47 0.42 0.33
0.39 0.28 0.13 0.07 0.05 0.08 0.08 0.08 0.09 0.10 0.07 0.04 0.05 0.05 0.05 0.07 0.10 0.13 0.14 0.15 0.15 0.19 0.27 0.37 0.51 0.63 0.70 0.73 0.83 0.90 0.90 0.89 0.89 0.82 0.78 0.75 0.77 0.73 0.68 0.62 0.63 0.62 0.59 0.58 0.57 0.59 0.54 0.49 0.45
0.29 0.20 0.14 0.11 0.11 0.12 0.12 0.11 0.11 0.11 0.08 0.05 0.06 0.09 0.10 0.11 0.12 0.13 0.15 0.17 0.19 0.24 0.31 0.41 0.57 0.68 0.73 0.72 0.80 0.86 0.85 0.80 0.81 0.79 0.80 0.80 0.81 0.77 0.75 0.70 0.71 0.72 0.69 0.65 0.62 0.59 0.55 0.52 0.47
0.26 0.16 0.12 0.13 0.14 0.15 0.15 0.13 0.12 0.08 0.04 0.06 0.06 0.09 0.13 0.13 0.14 0.14 0.17 0.24 0.26 0.28 0.36 0.49 0.61 0.72 0.80 0.83 0.86 0.87 0.82 0.76 0.76 0.79 0.80 0.75 0.70 0.65 0.60 0.61 0.60 0.55 0.53 0.53 0.54 0.55 0.53 0.51 0.47
0.22 0.16 0.13 0.13 0.15 0.17 0.19 0.14 0.11 0.07 0.04 0.07 0.09 0.09 0.11 0.13 0.15 0.17 0.20 0.26 0.30 0.32 0.40 0.53 0.66 0.77 0.87 0.85 0.88 0.88 0.85 0.82 0.82 0.78 0.73 0.70 0.65 0.61 0.56 0.52 0.52 0.48 0.43 0.40 0.41 0.41 0.42 0.42 0.40
0.25 0.26 0.19 0.12 0.13 0.15 0.24 0.23 0.10 0.05 0.06 0.09 0.11 0.10 0.10 0.12 0.16 0.18 0.19 0.22 0.28 0.35 0.46 0.57 0.70 0.87 0.95 0.92 0.94 0.95 0.92 0.88 0.84 0.80 0.75 0.71 0.66 0.63 0.61 0.56 0.52 0.49 0.47 0.46 0.44 0.44 0.43 0.40 0.37
0.40 0.45 0.35 0.14 0.12 0.16 0.33 0.29 0.08 0.05 0.10 0.12 0.12 0.12 0.11 0.12 0.16 0.21 0.24 0.26 0.31 0.42 0.54 0.64 0.77 0.93 1.02 1.04 1.03 1.00 0.97 0.96 0.91 0.84 0.80 0.76 0.70 0.65 0.63 0.60 0.56 0.56 0.56 0.57 0.54 0.49 0.46 0.43 0.39
0.56 0.49 0.30 0.14 0.10 0.19 0.33 0.25 0.08 0.07 0.11 0.12 0.13 0.14 0.13 0.13 0.17 0.23 0.27 0.30 0.34 0.44 0.56 0.67 0.78 0.94 1.07 1.14 1.13 1.13 1.04 1.02 1.00 0.94 0.86 0.81 0.74 0.68 0.64 0.62 0.63 0.65 0.69 0.67 0.63 0.58 0.51 0.47 0.43
0.49 0.33 0.21 0.14 0.12 0.19 0.24 0.17 0.08 0.09 0.12 0.11 0.13 0.15 0.15 0.16 0.18 0.25 0.30 0.35 0.40 0.45 0.56 0.69 0.83 1.00 1.13 1.29 1.32 1.31 1.23 1.10 1.06 1.01 0.89 0.80 0.78 0.73 0.69 0.67 0.67 0.71 0.74 0.73 0.69 0.63 0.57 0.54 0.52
0.33 0.32 0.23 0.13 0.11 0.21 0.20 0.14 0.10 0.10 0.13 0.13 0.14 0.17 0.18 0.18 0.23 0.28 0.37 0.45 0.49 0.51 0.57 0.64 0.80 0.98 1.14 1.27 1.35 1.31 1.26 1.13 1.06 1.02 0.96 0.86 0.82 0.83 0.79 0.71 0.71 0.70 0.71 0.69 0.68 0.68 0.67 0.63 0.62
0.37 0.40 0.29 0.19 0.13 0.22 0.22 0.14 0.10 0.10 0.13 0.15 0.15 0.19 0.21 0.18 0.21 0.26 0.34 0.45 0.50 0.53 0.56 0.62 0.75 0.89 1.05 1.19 1.24 1.30 1.26 1.19 1.12 1.07 1.02 0.93 0.83 0.88 0.92 0.82 0.75 0.73 0.70 0.72 0.74 0.72 0.72 0.73 0.68
0.42 0.37 0.29 0.27 0.24 0.26 0.30 0.22 0.09 0.08 0.09 0.12 0.13 0.15 0.18 0.20 0.20 0.23 0.30 0.40 0.49 0.52 0.57 0.64 0.71 0.82 0.95 1.18 1.40 1.52 1.56 1.44 1.29 1.17 1.05 0.93 0.86 0.82 0.91 0.94 0.84 0.78 0.73 0.70 0.68 0.69 0.68 0.71 0.66
0.48 0.25 0.25 0.31 0.50 0.51 0.41 0.44 0.12 0.06 0.07 0.08 0.11 0.11 0.12 0.17 0.17 0.19 0.26 0.34 0.43 0.50 0.61 0.70 0.71 0.80 0.94 1.13 1.39 1.54 1.59 1.45 1.20 1.06 1.03 0.97 0.91 0.86 0.83 0.91 0.90 0.86 0.82 0.75 0.69 0.67 0.67 0.73 0.75
0.38 0.26 0.29 0.37 0.60 0.70 0.47 0.51 0.18 0.08 0.09 0.07 0.08 0.09 0.09 0.14 0.16 0.15 0.21 0.27 0.37 0.51 0.62 0.74 0.80 0.87 0.99 1.09 1.28 1.51 1.60 1.50 1.35 1.22 1.10 1.02 0.99 0.94 0.86 0.84 0.87 0.86 0.84 0.83 0.77 0.71 0.72 0.75 0.78
0.36 0.42 0.51 0.60 0.99 1.25 0.46 0.42 0.25 0.14 0.15 0.11 0.09 0.09 0.10 0.13 0.17 0.15 0.18 0.23 0.33 0.48 0.57 0.74 0.86 0.90 1.03 1.09 1.21 1.36 1.54 1.62 1.56 1.44 1.30 1.14 1.07 1.01 0.98 0.86 0.85 0.86 0.85 0.85 0.82 0.76 0.74 0.76 0.76
0.63 1.07 1.62 1.78 1.84 1.11 0.23 0.29 0.28 0.14 0.11 0.13 0.14 0.13 0.12 0.13 0.15 0.16 0.17 0.19 0.27 0.44 0.55 0.69 0.87 0.88 0.97 1.05 1.14 1.26 1.43 1.58 1.67 1.56 1.38 1.26 1.21 1.12 1.01 0.96 0.87 0.86 0.85 0.83 0.83 0.83 0.77 0.73 0.78
0.67 0.98 1.33 1.23 0.79 0.32 0.16 0.25 0.23 0.13 0.08 0.08 0.09 0.11 0.12 0.12 0.13 0.16 0.16 0.18 0.22 0.31 0.45 0.59 0.80 0.83 0.86 0.94 1.03 1.18 1.37 1.54 1.63 1.65 1.46 1.32 1.24 1.14 1.03 0.98 0.91 0.86 0.87 0.89 0.87 0.85 0.82 0.77 0.75
0.63 0.70 0.64 0.89 0.64 0.38 0.26 0.22 0.18 0.09 0.06 0.05 0.06 0.07 0.10 0.13 0.12 0.13 0.17 0.18 0.21 0.27 0.37 0.51 0.75 0.83 0.78 0.84 0.94 1.06 1.22 1.43 1.53 1.57 1.54 1.39 1.31 1.24 1.17 1.09 1.04 0.96 0.94 0.93 0.91 0.88 0.83 0.82 0.82
0.50 0.63 0.72 1.16 1.08 0.63 0.35 0.21 0.23 0.16 0.10 0.08 0.08 0.08 0.09 0.10 0.11 0.11 0.15 0.16 0.19 0.23 0.33 0.47 0.66 0.84 0.83 0.81 0.88 0.97 1.05 1.23 1.40 1.53 1.61 1.48 1.40 1.36 1.36 1.30 1.25 1.14 1.09 1.05 1.01 0.96 0.87 0.86 0.86
0.61 0.79 1.00 1.04 0.83 0.67 0.50 0.36 0.30 0.22 0.17 0.14 0.11 0.09 0.09 0.10 0.11 0.11 0.13 0.14 0.17 0.20 0.28 0.44 0.59 0.75 0.89 0.91 0.89 0.96 1.03 1.16 1.28 1.33 1.40 1.47 1.46 1.40 1.46 1.50 1.45 1.37 1.27 1.23 1.20 1.14 1.06 1.01 0.93
0.66 0.75 0.87 1.08 0.84 0.48 0.48 0.43 0.27 0.18 0.16 0.15 0.12 0.09 0.08 0.09 0.10 0.11 0.11 0.13 0.14 0.17 0.23 0.35 0.53 0.68 0.80 0.90 0.94 0.96 1.04 1.17 1.24 1.23 1.21 1.25 1.34 1.37 1.42 1.60 1.64 1.57 1.47 1.37 1.38 1.37 1.28 1.22 1.14